This is the latest recevied weather packets stored in our database for station/object KE5VT. If no packets are shown the sender has not sent any weather packets the latest 10 day(s).
| Time | Temp. | Humidity | Pressure | Rain* | Wind** | Luminosity | Snow |
|---|---|---|---|---|---|---|---|
| 1787786566 | 26.67° C | 80% | 1012.9 hPa | 0 mm | - | 16 W/m² | - |
| 1787786261 | 26.67° C | 80% | 1012.7 hPa | 0 mm | - | 14 W/m² | - |
| 1787785957 | 26.67° C | 80% | 1013 hPa | 0 mm | - | 7 W/m² | - |
| 1787785652 | 26.67° C | 79% | 1012.7 hPa | 0 mm | - | 17 W/m² | - |
| 1787785352 | 27.22° C | 79% | 1012.6 hPa | 0 mm | - | 22 W/m² | - |
| 1787785051 | 27.22° C | 78% | 1012.6 hPa | 0 mm | - | 28 W/m² | - |
| 1787784747 | 27.22° C | 77% | 1012.7 hPa | 0 mm | - | 38 W/m² | - |
| 1787784446 | 27.22° C | 77% | 1012.7 hPa | 0 mm | - | 27 W/m² | - |
| 1787784145 | 27.78° C | 76% | 1012.6 hPa | 0 mm | - | 21 W/m² | - |
| 1787783842 | 27.78° C | 76% | 1012.4 hPa | 0 mm | - | 37 W/m² | - |
| 1787783537 | 27.78° C | 74% | 1012.3 hPa | 0 mm | - | 41 W/m² | - |
| 1787783232 | 28.33° C | 71% | 1012.4 hPa | 0 mm | - | 44 W/m² | - |
| 1787782927 | 28.89° C | 70% | 1012.3 hPa | 0 mm | - | 39 W/m² | - |
| 1787782626 | 28.89° C | 67% | 1012 hPa | 0 mm | - | 30 W/m² | - |
| 1787782321 | 29.44° C | 64% | 1011.9 hPa | 0 mm | - | 24 W/m² | - |
| 1787782018 | 29.44° C | 64% | 1011.8 hPa | 0 mm | - | 35 W/m² | - |
| 1787781713 | 29.44° C | 63% | 1011.9 hPa | 0 mm | - | 38 W/m² | - |
| 1787781410 | 29.44° C | 65% | 1012.1 hPa | 0 mm | - | 21 W/m² | - |
| 1787781109 | 28.89° C | 66% | 1012 hPa | 0 mm | - | 16 W/m² | - |
| 1787780809 | 29.44° C | 65% | 1012.1 hPa | 0 mm | - | 18 W/m² | - |
| 1787780508 | 29.44° C | 65% | 1011.9 hPa | 0 mm | - | 21 W/m² | - |
| 1787780204 | 29.44° C | 64% | 1012 hPa | 0 mm | - | 27 W/m² | - |
| 1787779899 | 29.44° C | 64% | 1011.9 hPa | 0 mm | - | 35 W/m² | - |
| 1787779594 | 29.44° C | 64% | 1011.9 hPa | 0 mm | - | 36 W/m² | - |
| 1787779294 | 29.44° C | 66% | 1012 hPa | 0 mm | - | 52 W/m² | - |
* Rain latest hour (hover to see other rain measurements)
** Current wind speed in m/s (hover to see current wind gust speed)